Home > Weather > Wuhan > Past weeks

Flag for China Weather for the Past 2 Weeks in Wuhan, Hubei, China

Now
41 °F

Haze.


Feels Like: 39 °F
Forecast: 36 / 62 °F
Wind: 3 mph from Northeast

Location: Wuhan Airport

Current Time: Feb 8, 2016 at 2:33:15 AM

Latest Report: Feb 8, 2016 at 2:00 AM


Visibility: 2 mi

Pressure: 30.21 "Hg

Humidity: 70%

Dew point: 32 °F

Location of WuhanLocation

Historic Weather in Wuhan — Graph

°F

Wuhan Temperature Yesterday

Maximum temperature yesterday: 57 °F (at 2:00 PM)
Minimum temperature yesterday: 30 °F (at 4:00 AM)
Average temperature yesterday: 44 °F

High & Low Weather Summary for the Past Weeks

 TemperatureHumidityPressure
High57 °F (Feb 7, 2:00 PM)100% (Jan 28, 3:00 AM)30.95 "Hg (Jan 28, 3:00 AM)
Low19 °F (Jan 25, 7:00 AM)20% (Feb 6, 4:00 PM)30.15 "Hg (Jan 28, 2:00 PM)
Average38 °F65%30.45 "Hg
* Reported Jan 24 1:00 AM — Feb 8 1:00 AM, Wuhan, Weather by CustomWeather, © 2016

Note: Actual official high and low records may vary slightly from our data, if they occured in-between our weather recording intervals... More about our weather records

Advertising

Wuhan Weather History for the Previous 24 Hours

 ConditionsComfort  
Time TempWeatherWind HumidityBarometerVisibility
1:00 AM
Mon, Feb 8
41 °FHaze.6 mph66%30.24 "Hg2 mi
12:00 AM43 °FHaze.3 mph61%30.24 "Hg3 mi
11:00 PM
Sun, Feb 7
48 °FClear.3 mph54%30.27 "Hg4 mi
10:00 PM48 °FClear.3 mph46%30.27 "Hg4 mi
9:00 PM50 °FClear.6 mph40%30.27 "Hg4 mi
8:00 PM52 °FClear.3 mph38%30.27 "Hg5 mi
7:00 PM50 °FClear.1 mph40%30.24 "Hg10 mi
6:00 PM52 °FClear.1 mph41%30.24 "Hg4 mi
5:00 PM57 °FClear.1 mph33%30.24 "Hg5 mi
4:00 PM57 °FClear.3 mph41%30.24 "Hg4 mi
3:00 PM57 °FPassing clouds.6 mph41%30.24 "HgN/A
2:00 PM57 °FPassing clouds.6 mph41%30.24 "HgN/A
1:00 PM54 °FPassing clouds.10 mph44%30.27 "HgN/A
12:00 PM48 °FSunny.8 mph46%30.30 "Hg10 mi
11:00 AM46 °FPassing clouds.8 mph46%30.33 "HgN/A
10:00 AM43 °FPassing clouds.8 mph49%30.36 "HgN/A
9:00 AM39 °FPassing clouds.3 mph56%30.36 "HgN/A
8:00 AM37 °FPassing clouds.3 mph60%30.36 "HgN/A
7:00 AM34 °FClear.3 mph65%30.36 "Hg10 mi
6:00 AM32 °FClear.1 mph75%30.36 "Hg10 mi
5:00 AM30 °FClear.1 mph86%30.36 "Hg10 mi
4:00 AM30 °FClear.No wind86%30.39 "Hg10 mi
3:00 AM32 °FPassing clouds.3 mph75%30.42 "HgN/A
2:00 AM34 °FClear.1 mph65%30.42 "Hg10 mi
Weather by CustomWeather, © 2016

See weather overviewHow to use our weather pages